Location: Newark
(20.1200°S, 168.9600°E)
Time: 23:44:36
(UTC+00:00)

Hubble Space Telescope - Pass Details

Date: 28 November 2019
Orbit: 536 x 540 km, 28.5° (Epoch: 08 December)

Event Time Altitude Azimuth Distance (km) Brightness Sun altitude
Exits shadow 17:13:16 - 245° (WSW) 2,635 3.9 -9.8°
Reaches altitude 10° 17:15:38 10° 233° (SW) 1,802 3.2 -9.3°
Maximum altitude 17:19:13 27° 174° (S) 1,061 2.7 -8.5°
Drops below altitude 10° 17:22:47 10° 115° (ESE) 1,799 5.2 -7.8°
Sets 17:25:19 0° 102° (ESE) 2,689 6.3 -7.2°
